Regional Weather Roundup
Issued by NWS

Home | Current Version | Previous Version | Text Only | Print | Product List | Glossary Off
Versions: 1 2 3 4 5 6 7 8 9 10 11 12 13 14 15 16 17 18 19 20 21 22 23 24 25 26 27 28

000
ASUS45 KCYS 221510
RWRWY

WYOMING REGIONAL WEATHER ROUNDUP
NATIONAL WEATHER SERVICE CHEYENNE WY
900 AM MDT TUE APR 22 2014

NOTE:  "FAIR" INDICATES FEW OR NO CLOUDS BELOW 12,000 FEET
WITH NO SIGNIFICANT WEATHER AND/OR OBSTRUCTIONS TO VISIBILITY.

WYZ001-221600-
YELLOWSTONE NATIONAL PARK

CITY           SKY/WX    TMP DP  RH WIND       PRES   REMARKS
LK YELLOWSTONE   N/A     33  32  96 NW3       29.96F
W YELLOWSTONE  NOT AVBL

$$
WYZ002>013-054>058-071-098>099-221600-
NORTHERN WYOMING

CITY           SKY/WX    TMP DP  RH WIND       PRES   REMARKS
JACKSON        MOSUNNY   39  39 100 N7        29.91F WCI  34
CODY           CLOUDY    55  36  47 SW10      29.82F
GREYBULL       CLOUDY    53  34  48 CALM      29.79F
WORLAND        CLOUDY    48  33  56 SW7       29.81F
SHERIDAN         N/A     46  32  57 SE8         N/A
BUFFALO        CLOUDY    54  33  45 CALM      29.82F
GILLETTE       CLOUDY    50  35  56 SE9       29.84F
HULETT         FAIR      55  36  47 N3        29.84
NEWCASTLE      FAIR      55  32  41 SE9       29.87

$$
WYZ014>020-022>026-101>103-221600-
CENTRAL WYOMING

CITY           SKY/WX    TMP DP  RH WIND       PRES   REMARKS
BIG PINEY      PTSUNNY   48  29  47 E8        29.94F
PINEDALE       CLOUDY    45  34  65 CALM      29.95F
DUBOIS         PTSUNNY   46  32  57 W12       29.91F
LANDER         CLOUDY    49  31  49 S9        29.85F
RIVERTON       PTSUNNY   49  26  41 NW10      29.86F
CASPER         CLOUDY    53  35  50 E5        29.86F
DOUGLAS        CLOUDY    47  37  68 S6        29.89F

$$
WYZ021-027>030-104>119-221600-
SOUTHERN WYOMING

CITY           SKY/WX    TMP DP  RH WIND       PRES   REMARKS
EVANSTON         N/A     58  30  34 S18G28    29.88F
KEMMERER       CLOUDY    50  32  50 CALM      29.92F
FORT BRIDGER   FAIR      56  34  43 SE6       29.93F
ROCK SPRINGS   CLOUDY    59  28  30 SW13      29.92F
DIXON          FAIR      58  33  37 W3        29.99F
RAWLINS        PTSUNNY   61  26  26 SW23G31   29.94F
SARATOGA       FAIR      55  28  35 SE17      29.99F
LARAMIE        CLOUDY    51  29  42 S14       30.02F
CHEYENNE       CLOUDY    55  36  48 S12       29.99F
TORRINGTON     CLOUDY    52  36  54 SE13      29.91F
PINE BLUFFS    FAIR      52  41  66 S17       29.98F

$$



USA.gov is the U.S. government's official web portal to all federal, state and local government web resources and services.